Weather History for KLRD - October, 2012

Change the Weather History Date:

Wednesday, October 17, 2012

  Actual Average Record
Temperature  
Mean Temperature 88 °F 76 °F  
Max Temperature 103 °F 86 °F 103 °F (2012)
Min Temperature 72 °F 65 °F 44 °F (1974)
Degree Days  
Heating Degree Days 0 0  
Month to date heating degree days 2 0  
Since 1 July heating degree days 2 1  
Cooling Degree Days 23 11  
Month to date cooling degree days 273 215  
Year to date cooling degree days 4703 4000  
Growing Degree Days 36 (Base 50)    
Moisture  
Dew Point 63 °F    
Average Humidity 49    
Maximum Humidity 81    
Minimum Humidity 25    
Precipitation  
Precipitation 0.00 in 0.08 in 2.00 in (1919)
Month to date precipitation T 1.37  
Year to date precipitation 8.76 17.29  
Sea Level Pressure  
Sea Level Pressure 29.69 in    
Wind  
Wind Speed 8 mph (SSE)    
Max Wind Speed 17 mph    
Max Gust Speed 22 mph    
Visibility 10 miles    
Events      
T = Trace of Precipitation, MM = Missing Value Source: NWS Daily Summary

Daily Weather History Graph

Daily Weather History Graph

Search for Another Location

Airport or City:

Trip Planner

Search our weather history database for the weather conditions in past years. The results will help you decide how hot, cold, wet, or windy it might be!

Date:

Astronomy

Oct. 17, 2012 Rise Set
Actual Time 7:39 AM CDT 7:06 PM CDT
Civil Twilight 7:15 AM CDT 7:29 PM CDT
Nautical Twilight 6:48 AM CDT 7:57 PM CDT
Astronomical Twilight 6:21 AM CDT 8:24 PM CDT
Moon 9:59 AM CDT (10/17) 9:00 PM CDT (10/17)
Length of Visible Light 12h 14m
Length of Day
11h 27m
Waxing Crescent, 7% of the Moon is Illuminated
Oct 17
Waxing Crescent
Oct 21
First Quarter
Oct 29
Full
Nov 6
Last Quarter
Nov 13
New

Hourly Weather History & Observations

Time (CDT) Temp. Heat Index Dew Point Humidity Pressure Visibility Wind Dir Wind Speed Gust Speed Precip Events Conditions
12:56 AM 79.0 °F - 61.0 °F 54% 29.73 in 10.0 mi South 11.5 mph - N/A   Clear
1:56 AM 77.9 °F - 59.9 °F 54% 29.73 in 10.0 mi SSE 8.1 mph - N/A   Clear
2:56 AM 77.9 °F - 63.0 °F 60% 29.73 in 10.0 mi SSE 10.4 mph - N/A   Clear
3:56 AM 77.0 °F - 64.9 °F 66% 29.72 in 10.0 mi SE 5.8 mph - N/A   Clear
4:56 AM 75.2 °F - 64.4 °F 69% 29.74 in 10.0 mi ESE 5.8 mph - N/A   Clear
5:56 AM 72.9 °F - 65.8 °F 79% 29.71 in 10.0 mi East 3.5 mph - N/A   Clear
6:56 AM 72.9 °F - 65.8 °F 79% 29.73 in 10.0 mi ESE 3.5 mph - N/A   Clear
7:56 AM 72.9 °F - 66.9 °F 82% 29.74 in 10.0 mi East 4.6 mph - N/A   Clear
8:56 AM 77.0 °F - 68.9 °F 76% 29.74 in 10.0 mi SSE 6.9 mph - N/A   Clear
9:56 AM 81.0 °F 84.1 °F 68.9 °F 67% 29.76 in 10.0 mi South 12.7 mph - N/A   Clear
10:56 AM 84.9 °F 88.8 °F 68.9 °F 59% 29.75 in 10.0 mi SSW 8.1 mph - N/A   Clear
11:56 AM 88.0 °F 91.4 °F 68.0 °F 51% 29.75 in 10.0 mi SW 6.9 mph - N/A   Clear
12:56 PM 92.8 °F 96.1 °F 66.9 °F 42% 29.72 in 10.0 mi SW 13.8 mph - N/A   Clear
1:56 PM 95.9 °F 98.5 °F 64.9 °F 36% 29.68 in 10.0 mi WSW 11.5 mph - N/A   Clear
2:56 PM 99.9 °F 101.5 °F 61.9 °F 29% 29.64 in 10.0 mi WNW 13.8 mph 17.3 mph N/A   Clear
3:56 PM 99.9 °F 100.9 °F 61.0 °F 28% 29.62 in 10.0 mi WNW 10.4 mph 16.1 mph N/A   Partly Cloudy
4:56 PM 99.9 °F 99.4 °F 57.9 °F 25% 29.61 in 10.0 mi WNW 9.2 mph - N/A   Clear
5:56 PM 100.9 °F 101.0 °F 59.0 °F 25% 29.60 in 10.0 mi West 9.2 mph - N/A   Clear
6:56 PM 97.9 °F 97.4 °F 59.0 °F 27% 29.62 in 10.0 mi WSW 8.1 mph - N/A   Clear
7:56 PM 95.0 °F 94.4 °F 59.0 °F 30% 29.64 in 10.0 mi Calm Calm - N/A   Clear
8:56 PM 90.9 °F 89.7 °F 57.9 °F 33% 29.67 in 10.0 mi ENE 11.5 mph - N/A   Clear
9:56 PM 88.0 °F 86.9 °F 57.9 °F 36% 29.68 in 10.0 mi ENE 9.2 mph - N/A   Clear
10:56 PM 86.0 °F 85.0 °F 57.9 °F 38% 29.68 in 10.0 mi ENE 5.8 mph - N/A   Clear
11:56 PM 82.9 °F 82.6 °F 57.9 °F 42% 29.69 in 10.0 mi East 5.8 mph - N/A   Partly Cloudy